DW4070 Weather Reports


time (UTC)temp
F
wind
direction
speed
knots
gust
knots
rain 1hr
in
rain 24hr
in
rain mn
in
humidity
%
barometer
mb
20260510170119 62 280 0.0 1.7 0.00 0.52 0.00 84 1015.0
20260510164601 60 280 0.0 2.6 0.00 0.52 0.00 86 1015.0
20260510163045 59 280 0.0 1.7 0.00 0.52 0.00 87 1015.2
20260510161542 58 280 0.0 1.7 0.00 0.52 0.00 89 1015.2
20260510160040 57 280 0.0 2.6 0.00 0.52 0.00 89 1015.3
20260510154539 57 280 0.0 1.7 0.00 0.52 0.00 91 1015.4
20260510153048 56 280 0.0 1.7 0.00 0.52 0.00 91 1015.3
20260510151536 56 280 0.0 1.7 0.00 0.52 0.00 91 1015.5
20260510150033 55 280 0.0 1.7 0.00 0.52 0.00 92 1015.6
20260510144531 55 280 0.0 1.7 0.00 0.52 0.00 92 1015.5
20260510143028 55 280 0.0 1.7 0.00 0.52 0.00 93 1015.4
20260510141531 54 280 0.0 0.0 0.00 0.52 0.00 94 1015.1
20260510140024 54 280 0.0 0.0 0.00 0.52 0.00 94 1015.1
20260510134523 54 280 0.0 0.0 0.00 0.52 0.00 95 1015.1
20260510133019 53 280 0.0 0.0 0.00 0.52 0.00 95 1015.0
20260510131519 53 280 0.0 0.0 0.00 0.52 0.00 95 1014.9
20260510130036 53 280 0.0 0.0 0.00 0.53 0.00 95 1014.9
20260510124519 52 280 0.0 0.0 0.00 0.53 0.00 95 1014.7
20260510123013 52 280 0.0 0.0 0.00 0.53 0.00 95 1014.6
20260510121513 52 280 0.0 0.0 0.00 0.53 0.00 95 1014.4
20260510120025 52 280 0.0 0.0 0.00 0.53 0.00 95 1014.3
20260510114515 51 280 0.0 3.5 0.00 0.53 0.00 95 1014.3
20260510113009 51 280 0.9 2.6 0.00 0.53 0.00 95 1014.0
20260510111509 51 280 0.0 2.6 0.00 0.53 0.00 95 1013.9
20260510110018 51 280 0.0 1.7 0.00 0.53 0.00 95 1013.9
20260510104509 51 280 0.0 0.0 0.00 0.53 0.00 95 1014.0
20260510103006 51 279 0.0 1.7 0.00 0.53 0.00 95 1013.8
20260510101507 51 279 0.0 0.9 0.00 0.53 0.00 95 1013.9
20260510100005 51 51 0.0 0.0 0.00 0.53 0.00 95 1013.7
20260510094507 51 280 0.0 0.0 0.00 0.53 0.00 95 1013.7
20260510093003 51 280 0.0 0.0 0.00 0.53 0.00 95 1014.1
20260510091503 51 280 0.0 0.0 0.00 0.53 0.00 95 1014.1
20260510090003 51 280 0.0 0.0 0.00 0.53 0.00 95 1014.1
20260510084502 51 280 0.0 0.0 0.00 0.53 0.00 95 1014.1
20260510083001 51 280 0.0 1.7 0.00 0.53 0.00 95 1014.1
20260510081602 51 280 0.0 1.7 0.00 0.53 0.00 95 1013.8
20260510074557 51 280 0.0 0.0 0.00 0.53 0.00 95 1013.0
20260510073106 51 280 0.0 0.0 0.00 0.53 0.00 95 1013.1
20260510071555 51 280 0.0 0.0 0.00 0.53 0.00 95 1013.3
20260510070055 52 280 0.0 0.0 0.00 0.53 0.00 95 1013.2
20260510064554 52 280 0.0 0.0 0.00 0.53 0.00 95 1013.1
20260510063053 52 280 0.0 0.0 0.00 0.53 0.00 95 1013.2
20260510061552 52 280 0.0 0.0 0.00 0.53 0.00 95 1013.0
20260510060052 52 280 0.0 0.0 0.00 0.53 0.00 95 1013.0
20260510054551 52 280 0.0 0.0 0.00 0.53 0.00 95 1013.0
20260510053050 52 280 0.0 0.0 0.00 0.53 0.00 95 1013.2
20260510051554 52 280 0.0 0.0 0.00 0.53 0.00 95 1013.2
20260510050055 52 280 0.0 0.0 0.00 0.53 0.00 95 1013.2
20260510044548 52 280 0.0 0.0 0.00 0.53 0.00 95 1013.2
20260510043047 52 280 0.0 0.0 0.00 0.53 0.00 95 1013.1
20260510041545 52 280 0.0 0.0 0.00 0.53 0.00 95 1013.2
20260510040042 52 280 0.0 0.0 0.00 0.53 0.00 95 1012.9
20260510034547 53 280 0.0 0.0 0.00 0.53 0.53 95 1012.8
20260510033046 53 280 0.0 0.0 0.00 0.53 0.53 95 1012.8
20260510031541 53 280 0.0 0.0 0.00 0.53 0.53 95 1012.8
20260510030041 53 280 0.0 0.0 0.00 0.53 0.53 95 1012.9
20260510024541 53 280 0.0 0.0 0.00 0.53 0.53 95 1013.0
20260510023040 53 280 0.0 0.0 0.00 0.53 0.53 95 1013.0
20260510021540 53 280 0.0 0.0 0.00 0.53 0.53 95 1012.9
20260510020039 53 280 0.0 0.0 0.00 0.53 0.53 94 1012.9
20260510014543 53 280 0.0 0.0 0.00 0.53 0.53 95 1012.8
20260510013039 53 280 0.0 0.0 0.00 0.53 0.53 95 1012.8
20260510011538 53 280 0.0 0.0 0.00 0.53 0.53 95 1012.5
20260510010039 53 280 0.0 0.0 0.01 0.53 0.53 94 1012.3
20260510004637 53 280 0.0 0.0 0.02 0.53 0.53 94 1012.2
20260510003036 54 280 0.0 0.0 0.04 0.53 0.53 94 1012.2
20260510001535 54 280 0.0 0.0 0.05 0.53 0.53 94 1012.2
20260510000038 54 280 0.0 0.0 0.07 0.52 0.52 93 1012.0
20260509234541 55 280 0.0 0.0 0.08 0.51 0.51 94 1012.1
20260509233036 55 280 0.0 0.0 0.09 0.49 0.49 94 1012.2
20260509231533 55 280 0.0 0.0 0.10 0.47 0.47 94 1012.3
20260509230032 54 280 0.0 0.0 0.11 0.45 0.45 94 1012.1
20260509224544 55 280 0.0 1.7 0.10 0.42 0.42 93 1012.3
20260509223030 55 280 0.0 0.0 0.08 0.39 0.39 94 1012.7
20260509221532 55 280 0.0 0.0 0.06 0.37 0.37 94 1012.7
20260509220029 56 280 0.0 0.0 0.05 0.34 0.34 94 1012.9
20260509214529 56 280 0.0 0.0 0.05 0.32 0.32 94 1012.6
20260509213028 56 280 0.0 0.0 0.06 0.31 0.31 93 1012.8
20260509211528 56 280 0.0 0.0 0.08 0.31 0.31 93 1013.1
20260509210028 56 280 0.0 0.0 0.06 0.28 0.28 93 1013.1
20260509204527 56 280 0.0 0.0 0.04 0.26 0.26 93 1013.1
20260509203033 56 280 0.0 0.9 0.04 0.24 0.24 93 1013.2
20260509201526 56 280 0.0 0.9 0.05 0.23 0.23 93 1013.4
20260509200027 56 280 0.0 0.0 0.09 0.23 0.23 93 1012.5
20260509194527 56 280 0.0 0.0 0.13 0.22 0.22 92 1012.5
20260509193024 56 280 0.0 0.0 0.19 0.20 0.20 91 1013.4
20260509191526 56 281 0.0 0.0 0.16 0.17 0.17 91 1013.2
20260509190022 57 280 0.0 0.0 0.13 0.14 0.14 89 1013.4
20260509184539 57 280 0.0 3.5 0.08 0.09 0.09 87 1013.5
20260509183021 59 280 0.9 2.6 0.00 0.01 0.01 81 1013.1
20260509181520 60 280 0.0 1.7 0.00 0.01 0.01 78 1012.5
20260509180022 61 280 0.0 2.6 0.00 0.01 0.01 74 1012.5
20260509174527 63 280 0.0 4.3 0.00 0.01 0.01 68 1012.4
20260509173019 64 280 1.7 4.3 0.00 0.01 0.01 64 1012.3
20260509171517 64 280 1.7 4.3 0.00 0.01 0.01 64 1012.5